Time,TemperatureF,DewpointF,PressureIn,WindDirection,WindDirectionDegrees,WindSpeedMPH,WindSpeedGustMPH,Humidity,HourlyPrecipIn,Conditions,Clouds,dailyrainin,SoftwareType,DateUTC
2013-03-13 00:03:00,34.0,25.0,29.94,SW,228,2.0,12.0,70,0.00,,,0.00,,2013-03-13 04:03:00,
2013-03-13 00:13:00,34.0,25.0,29.94,SW,228,2.0,12.0,70,0.00,,,0.00,,2013-03-13 04:13:00,
2013-03-13 00:22:00,34.0,25.0,29.94,SW,225,0.0,1.0,69,0.00,,,0.00,,2013-03-13 04:22:00,
2013-03-13 00:32:00,34.0,25.0,29.94,WNW,283,1.0,7.0,69,0.00,,,0.00,,2013-03-13 04:32:00,
2013-03-13 00:43:00,34.0,25.0,29.94,WNW,283,1.0,7.0,69,0.00,,,0.00,,2013-03-13 04:43:00,
2013-03-13 00:53:00,34.0,25.0,29.94,SW,225,0.0,2.0,69,0.00,,,0.00,,2013-03-13 04:53:00,
2013-03-13 01:02:00,34.0,25.0,29.92,SW,225,0.0,0.0,70,0.00,,,0.00,,2013-03-13 05:02:00,
2013-03-13 01:12:00,34.0,25.0,29.92,SW,225,0.0,0.0,70,0.00,,,0.00,,2013-03-13 05:12:00,
2013-03-13 01:22:00,34.0,25.0,29.92,SSW,204,0.0,0.0,70,0.00,,,0.00,,2013-03-13 05:22:00,
2013-03-13 01:32:00,33.0,24.0,29.92,SW,225,0.0,0.0,70,0.00,,,0.00,,2013-03-13 05:32:00,
2013-03-13 01:42:00,33.0,24.0,29.92,SW,225,0.0,0.0,70,0.00,,,0.00,,2013-03-13 05:42:00,
2013-03-13 01:52:00,33.0,25.0,29.91,SSW,202,0.0,0.0,71,0.00,,,0.00,,2013-03-13 05:52:00,
2013-03-13 02:02:00,33.0,25.0,29.91,SSW,202,0.0,0.0,71,0.00,,,0.00,,2013-03-13 06:02:00,
2013-03-13 02:12:00,33.0,25.0,29.91,SSW,202,0.0,0.0,71,0.00,,,0.00,,2013-03-13 06:12:00,
2013-03-13 02:23:00,32.0,24.0,29.91,SSW,202,0.0,0.0,72,0.00,,,0.00,,2013-03-13 06:23:00,
2013-03-13 02:32:00,32.0,24.0,29.90,SSW,202,0.0,0.0,73,0.00,,,0.00,,2013-03-13 06:32:00,
2013-03-13 02:42:00,32.0,24.0,29.90,SSW,202,0.0,0.0,73,0.00,,,0.00,,2013-03-13 06:42:00,
2013-03-13 02:53:00,32.0,24.0,29.90,SSW,202,0.0,0.0,73,0.00,,,0.00,,2013-03-13 06:53:00,
2013-03-13 03:02:00,33.0,26.0,29.89,SSW,202,0.0,0.0,74,0.00,,,0.00,,2013-03-13 07:02:00,
2013-03-13 03:12:00,33.0,26.0,29.89,SSW,202,0.0,0.0,74,0.00,,,0.00,,2013-03-13 07:12:00,
2013-03-13 03:22:00,33.0,26.0,29.89,SSW,202,0.0,0.0,74,0.00,,,0.00,,2013-03-13 07:22:00,
2013-03-13 03:32:00,33.0,26.0,29.89,SSW,202,0.0,0.0,74,0.00,,,0.00,,2013-03-13 07:32:00,
2013-03-13 03:42:00,33.0,26.0,29.89,SSW,202,0.0,0.0,74,0.00,,,0.00,,2013-03-13 07:42:00,
2013-03-13 03:52:00,33.0,26.0,29.89,SSW,202,0.0,0.0,76,0.00,,,0.00,,2013-03-13 07:52:00,
2013-03-13 04:03:00,32.0,26.0,29.88,SSW,202,0.0,0.0,77,0.00,,,0.00,,2013-03-13 08:03:00,
2013-03-13 04:12:00,32.0,26.0,29.88,SSW,202,0.0,0.0,77,0.00,,,0.00,,2013-03-13 08:12:00,
2013-03-13 04:23:00,32.0,26.0,29.88,SSW,202,0.0,0.0,77,0.00,,,0.00,,2013-03-13 08:23:00,
2013-03-13 04:32:00,32.0,26.0,29.87,SSW,202,0.0,0.0,78,0.00,,,0.00,,2013-03-13 08:32:00,
2013-03-13 04:43:00,32.0,26.0,29.87,SSW,202,0.0,0.0,78,0.00,,,0.00,,2013-03-13 08:43:00,
2013-03-13 04:53:00,32.0,26.0,29.87,SSW,202,0.0,0.0,79,0.00,,,0.00,,2013-03-13 08:53:00,
2013-03-13 05:02:00,32.0,26.0,29.87,SW,225,0.0,0.0,79,0.00,,,0.00,,2013-03-13 09:02:00,
2013-03-13 05:12:00,32.0,26.0,29.87,SW,225,0.0,0.0,79,0.00,,,0.00,,2013-03-13 09:12:00,
2013-03-13 05:22:00,32.0,26.0,29.86,SW,216,0.0,0.0,79,0.00,,,0.00,,2013-03-13 09:22:00,
2013-03-13 05:32:00,32.0,27.0,29.87,SSW,202,0.0,0.0,80,0.00,,,0.00,,2013-03-13 09:32:00,
2013-03-13 05:42:00,32.0,27.0,29.87,SSW,202,0.0,0.0,80,0.00,,,0.00,,2013-03-13 09:42:00,
2013-03-13 05:52:00,32.0,27.0,29.87,SW,223,0.0,0.0,80,0.00,,,0.00,,2013-03-13 09:52:00,
2013-03-13 06:02:00,32.0,27.0,29.87,WSW,247,0.0,0.0,80,0.00,,,0.00,,2013-03-13 10:02:00,
2013-03-13 06:12:00,32.0,27.0,29.87,WSW,247,0.0,0.0,80,0.00,,,0.00,,2013-03-13 10:12:00,
2013-03-13 06:22:00,32.0,27.0,29.87,SSW,196,0.0,0.0,80,0.00,,,0.00,,2013-03-13 10:22:00,
2013-03-13 06:32:00,32.0,27.0,29.86,SSW,202,0.0,0.0,80,0.00,,,0.00,,2013-03-13 10:32:00,
2013-03-13 06:42:00,32.0,27.0,29.86,SSW,202,0.0,0.0,80,0.00,,,0.00,,2013-03-13 10:42:00,
2013-03-13 06:52:00,32.0,27.0,29.86,SSW,202,0.0,0.0,80,0.00,,,0.00,,2013-03-13 10:52:00,
2013-03-13 07:02:00,32.0,27.0,29.86,SSW,202,0.0,0.0,80,0.00,,,0.00,,2013-03-13 11:02:00,
2013-03-13 07:12:00,32.0,27.0,29.86,SSW,202,0.0,0.0,80,0.00,,,0.00,,2013-03-13 11:12:00,
2013-03-13 07:22:00,32.0,27.0,29.87,SW,227,0.0,0.0,80,0.00,,,0.00,,2013-03-13 11:22:00,
2013-03-13 07:32:00,32.0,27.0,29.86,WNW,288,1.0,8.0,81,0.00,,,0.00,,2013-03-13 11:32:00,
2013-03-13 07:42:00,32.0,27.0,29.86,WNW,288,1.0,8.0,81,0.00,,,0.00,,2013-03-13 11:42:00,
2013-03-13 07:53:00,32.0,27.0,29.86,WSW,249,1.0,8.0,80,0.00,,,0.00,,2013-03-13 11:53:00,
2013-03-13 08:02:00,32.0,27.0,29.87,SW,231,3.0,9.0,80,0.00,,,0.00,,2013-03-13 12:02:00,
2013-03-13 08:12:00,32.0,27.0,29.87,SW,231,3.0,9.0,80,0.00,,,0.00,,2013-03-13 12:12:00,
2013-03-13 08:22:00,32.0,27.0,29.86,WNW,289,1.0,7.0,80,0.00,,,0.00,,2013-03-13 12:22:00,
2013-03-13 08:32:00,32.0,27.0,29.87,SW,230,4.0,9.0,80,0.00,,,0.00,,2013-03-13 12:32:00,
2013-03-13 08:42:00,32.0,27.0,29.87,SW,230,4.0,9.0,80,0.00,,,0.00,,2013-03-13 12:42:00,
2013-03-13 08:52:00,32.0,26.0,29.88,SW,235,10.0,16.0,78,0.00,,,0.00,,2013-03-13 12:52:00,
2013-03-13 09:02:00,31.0,25.0,29.88,SW,224,6.0,12.0,78,0.00,,,0.00,,2013-03-13 13:02:00,
2013-03-13 09:12:00,31.0,25.0,29.88,SW,224,6.0,12.0,78,0.00,,,0.00,,2013-03-13 13:12:00,
2013-03-13 09:22:00,31.0,25.0,29.89,West,262,6.0,10.0,79,0.00,,,0.00,,2013-03-13 13:22:00,
2013-03-13 09:33:00,31.0,25.0,29.89,WNW,291,2.0,6.0,78,0.00,,,0.00,,2013-03-13 13:33:00,
2013-03-13 09:43:00,31.0,25.0,29.89,WNW,291,2.0,6.0,78,0.00,,,0.00,,2013-03-13 13:43:00,
2013-03-13 09:53:00,32.0,25.0,29.89,SW,220,2.0,8.0,76,0.00,,,0.00,,2013-03-13 13:53:00,
2013-03-13 10:02:00,32.0,25.0,29.88,WSW,237,4.0,14.0,76,0.00,,,0.00,,2013-03-13 14:02:00,
2013-03-13 10:12:00,32.0,25.0,29.88,WSW,237,4.0,14.0,76,0.00,,,0.00,,2013-03-13 14:12:00,
2013-03-13 10:22:00,33.0,26.0,29.89,WSW,244,2.0,8.0,74,0.00,,,0.00,,2013-03-13 14:22:00,
2013-03-13 10:33:00,34.0,26.0,29.89,SSW,203,8.0,16.0,72,0.00,,,0.00,,2013-03-13 14:33:00,
2013-03-13 10:42:00,34.0,26.0,29.89,SSW,203,8.0,16.0,72,0.00,,,0.00,,2013-03-13 14:42:00,
2013-03-13 10:53:00,33.0,25.0,29.89,SW,236,0.0,9.0,71,0.00,,,0.00,,2013-03-13 14:53:00,
2013-03-13 11:03:00,33.0,25.0,29.89,NW,313,1.0,7.0,71,0.00,,,0.00,,2013-03-13 15:03:00,
2013-03-13 11:12:00,33.0,25.0,29.89,NW,313,1.0,7.0,71,0.00,,,0.00,,2013-03-13 15:12:00,
2013-03-13 11:22:00,33.0,25.0,29.89,WSW,249,5.0,10.0,71,0.00,,,0.00,,2013-03-13 15:22:00,
2013-03-13 11:32:00,32.0,24.0,29.90,WNW,292,0.0,0.0,73,0.00,,,0.00,,2013-03-13 15:32:00,
2013-03-13 11:43:00,32.0,24.0,29.90,WNW,292,0.0,0.0,73,0.00,,,0.00,,2013-03-13 15:43:00,
2013-03-13 11:52:00,32.0,25.0,29.89,WNW,292,0.0,5.0,74,0.00,,,0.00,,2013-03-13 15:52:00,
2013-03-13 12:03:00,33.0,26.0,29.89,West,260,0.0,8.0,75,0.00,,,0.00,,2013-03-13 16:03:00,
2013-03-13 12:12:00,33.0,26.0,29.89,West,260,0.0,8.0,75,0.00,,,0.00,,2013-03-13 16:12:00,
2013-03-13 12:22:00,33.0,25.0,29.89,SW,231,1.0,8.0,73,0.00,,,0.00,,2013-03-13 16:22:00,
2013-03-13 12:32:00,34.0,26.0,29.89,SW,223,9.0,13.0,73,0.00,,,0.00,,2013-03-13 16:32:00,
2013-03-13 12:42:00,34.0,26.0,29.89,SW,223,9.0,13.0,73,0.00,,,0.00,,2013-03-13 16:42:00,
2013-03-13 12:52:00,34.0,26.0,29.89,WNW,297,1.0,8.0,72,0.00,,,0.00,,2013-03-13 16:52:00,
2013-03-13 13:03:00,34.0,26.0,29.89,WNW,298,4.0,10.0,73,0.00,,,0.00,,2013-03-13 17:03:00,
2013-03-13 13:12:00,34.0,26.0,29.89,WNW,298,4.0,10.0,73,0.00,,,0.00,,2013-03-13 17:12:00,
2013-03-13 13:22:00,34.0,26.0,29.89,NW,326,2.0,10.0,72,0.00,,,0.00,,2013-03-13 17:22:00,
2013-03-13 13:32:00,34.0,26.0,29.89,WNW,282,4.0,10.0,71,0.00,,,0.00,,2013-03-13 17:32:00,
2013-03-13 13:42:00,34.0,26.0,29.89,WNW,282,4.0,10.0,71,0.00,,,0.00,,2013-03-13 17:42:00,
2013-03-13 13:53:00,35.0,26.0,29.89,NW,304,3.0,10.0,70,0.00,,,0.00,,2013-03-13 17:53:00,
2013-03-13 14:02:00,35.0,27.0,29.88,NW,315,4.0,14.0,71,0.00,,,0.00,,2013-03-13 18:02:00,
2013-03-13 14:12:00,35.0,27.0,29.88,NW,315,4.0,14.0,71,0.00,,,0.00,,2013-03-13 18:12:00,
2013-03-13 14:22:00,34.0,25.0,29.89,WNW,292,5.0,10.0,70,0.00,,,0.00,,2013-03-13 18:22:00,
2013-03-13 14:33:00,31.0,23.0,29.90,NW,317,6.0,13.0,73,0.00,,,0.00,,2013-03-13 18:33:00,
2013-03-13 14:42:00,31.0,23.0,29.90,NW,317,6.0,13.0,73,0.00,,,0.00,,2013-03-13 18:42:00,
2013-03-13 14:52:00,31.0,24.0,29.90,West,270,3.0,10.0,75,0.00,,,0.00,,2013-03-13 18:52:00,
2013-03-13 15:02:00,32.0,25.0,29.89,West,274,6.0,13.0,76,0.00,,,0.00,,2013-03-13 19:02:00,
2013-03-13 15:12:00,32.0,25.0,29.89,West,274,6.0,13.0,76,0.00,,,0.00,,2013-03-13 19:12:00,
2013-03-13 15:22:00,33.0,26.0,29.89,NW,310,7.0,16.0,74,0.00,,,0.00,,2013-03-13 19:22:00,
2013-03-13 15:32:00,33.0,25.0,29.89,NNW,331,5.0,10.0,73,0.00,,,0.00,,2013-03-13 19:32:00,
2013-03-13 15:43:00,33.0,25.0,29.89,NNW,331,5.0,10.0,73,0.00,,,0.00,,2013-03-13 19:43:00,
2013-03-13 15:52:00,33.0,25.0,29.89,NNW,331,5.0,10.0,73,0.00,,,0.00,,2013-03-13 19:52:00,
2013-03-13 16:02:00,32.0,23.0,29.91,WNW,285,3.0,9.0,69,0.00,,,0.00,,2013-03-13 20:02:00,
2013-03-13 16:12:00,32.0,23.0,29.91,WNW,285,3.0,9.0,69,0.00,,,0.00,,2013-03-13 20:12:00,
2013-03-13 16:22:00,32.0,23.0,29.91,WSW,242,1.0,13.0,70,0.00,,,0.00,,2013-03-13 20:22:00,
2013-03-13 16:32:00,32.0,23.0,29.91,WNW,296,3.0,10.0,70,0.00,,,0.00,,2013-03-13 20:32:00,
2013-03-13 16:42:00,32.0,23.0,29.91,WNW,296,3.0,10.0,70,0.00,,,0.00,,2013-03-13 20:42:00,
2013-03-13 16:52:00,31.0,22.0,29.92,WSW,237,4.0,9.0,69,0.00,,,0.00,,2013-03-13 20:52:00,
2013-03-13 17:02:00,31.0,21.0,29.92,SSW,203,5.0,13.0,66,0.00,,,0.00,,2013-03-13 21:02:00,
2013-03-13 17:12:00,31.0,21.0,29.92,SSW,203,5.0,13.0,66,0.00,,,0.00,,2013-03-13 21:12:00,
2013-03-13 17:22:00,32.0,22.0,29.93,WNW,292,5.0,12.0,65,0.00,,,0.00,,2013-03-13 21:22:00,
2013-03-13 17:33:00,32.0,22.0,29.93,WNW,292,5.0,12.0,65,0.00,,,0.00,,2013-03-13 21:33:00,
2013-03-13 17:42:00,32.0,22.0,29.93,WNW,292,5.0,12.0,65,0.00,,,0.00,,2013-03-13 21:42:00,
2013-03-13 17:52:00,31.0,22.0,29.95,WNW,285,3.0,13.0,68,0.00,,,0.00,,2013-03-13 21:52:00,
2013-03-13 18:02:00,30.0,21.0,29.95,WNW,302,1.0,8.0,69,0.00,,,0.00,,2013-03-13 22:02:00,
2013-03-13 18:12:00,30.0,21.0,29.95,WNW,302,1.0,8.0,69,0.00,,,0.00,,2013-03-13 22:12:00,
2013-03-13 18:22:00,30.0,21.0,29.95,West,267,0.0,6.0,69,0.00,,,0.00,,2013-03-13 22:22:00,
2013-03-13 18:32:00,30.0,21.0,29.95,West,267,0.0,6.0,69,0.00,,,0.00,,2013-03-13 22:32:00,
2013-03-13 18:42:00,30.0,21.0,29.95,West,267,0.0,6.0,69,0.00,,,0.00,,2013-03-13 22:42:00,
2013-03-13 18:52:00,30.0,20.0,29.96,WNW,300,3.0,8.0,66,0.00,,,0.00,,2013-03-13 22:52:00,
2013-03-13 19:02:00,29.0,19.0,29.97,NNW,336,1.0,8.0,66,0.00,,,0.00,,2013-03-13 23:02:00,
2013-03-13 19:12:00,29.0,19.0,29.97,NNW,336,1.0,8.0,66,0.00,,,0.00,,2013-03-13 23:12:00,
2013-03-13 19:22:00,29.0,20.0,29.98,NW,321,3.0,8.0,68,0.00,,,0.00,,2013-03-13 23:22:00,
2013-03-13 19:32:00,28.0,20.0,29.98,WNW,290,6.0,13.0,71,0.00,,,0.00,,2013-03-13 23:32:00,
2013-03-13 19:42:00,28.0,20.0,29.98,WNW,290,6.0,13.0,71,0.00,,,0.00,,2013-03-13 23:42:00,
2013-03-13 19:52:00,27.0,19.0,29.99,West,280,4.0,7.0,71,0.00,,,0.00,,2013-03-13 23:52:00,
2013-03-13 20:02:00,27.0,19.0,29.99,SW,235,4.0,14.0,71,0.00,,,0.00,,2013-03-14 00:02:00,
2013-03-13 20:13:00,27.0,19.0,29.99,SW,235,4.0,14.0,71,0.00,,,0.00,,2013-03-14 00:13:00,
2013-03-13 20:22:00,27.0,19.0,30.00,West,272,3.0,14.0,72,0.00,,,0.00,,2013-03-14 00:22:00,
2013-03-13 20:32:00,27.0,20.0,30.00,West,280,5.0,9.0,73,0.00,,,0.00,,2013-03-14 00:32:00,
2013-03-13 20:42:00,27.0,20.0,30.00,West,280,5.0,9.0,73,0.00,,,0.00,,2013-03-14 00:42:00,
2013-03-13 20:52:00,26.0,19.0,30.01,West,274,1.0,6.0,76,0.00,,,0.00,,2013-03-14 00:52:00,
2013-03-13 21:02:00,26.0,19.0,30.01,West,274,1.0,6.0,76,0.00,,,0.00,,2013-03-14 01:02:00,
2013-03-13 21:12:00,26.0,19.0,30.01,West,274,1.0,6.0,76,0.00,,,0.00,,2013-03-14 01:12:00,
2013-03-13 21:23:00,26.0,19.0,30.01,WNW,292,2.0,6.0,75,0.00,,,0.00,,2013-03-14 01:23:00,
2013-03-13 21:32:00,26.0,19.0,30.01,SW,223,1.0,5.0,75,0.00,,,0.00,,2013-03-14 01:32:00,
2013-03-13 21:42:00,26.0,19.0,30.01,SW,223,1.0,5.0,75,0.00,,,0.00,,2013-03-14 01:42:00,
2013-03-13 21:53:00,26.0,19.0,30.01,SW,223,1.0,5.0,75,0.00,,,0.00,,2013-03-14 01:53:00,
2013-03-13 22:02:00,26.0,19.0,30.01,WSW,256,3.0,8.0,73,0.00,,,0.00,,2013-03-14 02:02:00,
2013-03-13 22:12:00,26.0,19.0,30.01,WSW,256,3.0,8.0,73,0.00,,,0.00,,2013-03-14 02:12:00,
2013-03-13 22:22:00,26.0,18.0,30.02,WSW,238,1.0,10.0,72,0.00,,,0.00,,2013-03-14 02:22:00,
2013-03-13 22:33:00,26.0,18.0,30.02,WNW,294,2.0,7.0,71,0.00,,,0.00,,2013-03-14 02:33:00,
2013-03-13 22:42:00,26.0,18.0,30.02,WNW,294,2.0,7.0,71,0.00,,,0.00,,2013-03-14 02:42:00,
2013-03-13 22:52:00,26.0,18.0,30.02,WNW,294,2.0,7.0,71,0.00,,,0.00,,2013-03-14 02:52:00,
2013-03-13 23:02:00,26.0,18.0,30.02,NW,314,0.0,10.0,70,0.00,,,0.00,,2013-03-14 03:02:00,
2013-03-13 23:12:00,26.0,18.0,30.02,NW,314,0.0,10.0,70,0.00,,,0.00,,2013-03-14 03:12:00,
2013-03-13 23:23:00,26.0,18.0,30.02,WSW,250,1.0,6.0,70,0.00,,,0.00,,2013-03-14 03:23:00,
2013-03-13 23:32:00,26.0,18.0,30.02,West,273,2.0,8.0,70,0.00,,,0.00,,2013-03-14 03:32:00,
2013-03-13 23:42:00,26.0,18.0,30.02,West,273,2.0,8.0,70,0.00,,,0.00,,2013-03-14 03:42:00,
2013-03-13 23:53:00,26.0,18.0,30.02,WNW,294,2.0,9.0,72,0.00,,,0.00,,2013-03-14 03:53:00,